This is the latest recevied weather packets stored in our database for station/object LA1HSA-13. If no packets are shown the sender has not sent any weather packets the latest 10 day(s).
| Time | Temp. | Humidity | Pressure | Rain* | Wind** | Luminosity | Snow |
|---|---|---|---|---|---|---|---|
| 1777998003 | 7.78° C | 36% | 1009.9 hPa | 0 mm | - | - | - |
| 1777997403 | 7.78° C | 36% | 1010.1 hPa | 0 mm | - | - | - |
| 1777996803 | 7.78° C | 35% | 1009.7 hPa | 0 mm | - | - | - |
| 1777996203 | 10° C | 33% | 1009.8 hPa | 0 mm | - | - | - |
| 1777995603 | 9.44° C | 26% | 1009.8 hPa | 0 mm | - | - | - |
| 1777995003 | 10.56° C | 26% | 1009.7 hPa | 0 mm | - | - | - |
| 1777994403 | 9.44° C | 29% | 1009.7 hPa | 0 mm | - | - | - |
| 1777993803 | 10° C | 26% | 1009.5 hPa | 0 mm | - | - | - |
| 1777993203 | 10.56° C | 26% | 1009.3 hPa | 0 mm | - | - | - |
| 1777992603 | 10.56° C | 27% | 1009.6 hPa | 0 mm | - | - | - |
| 1777992004 | 9.44° C | 27% | 1009.5 hPa | 0 mm | - | - | - |
| 1777991403 | 8.89° C | 28% | 1009.3 hPa | 0 mm | - | - | - |
| 1777990803 | 10.56° C | 27% | 1009.5 hPa | 0 mm | - | - | - |
| 1777989603 | 8.33° C | 28% | 1009.5 hPa | 0 mm | - | - | - |
| 1777989003 | 8.89° C | 28% | 1009.3 hPa | 0 mm | - | - | - |
| 1777988403 | 8.89° C | 29% | 1009.5 hPa | 0 mm | - | - | - |
| 1777987803 | 8.89° C | 29% | 1009.3 hPa | 0 mm | - | - | - |
| 1777987203 | 8.89° C | 32% | 1009.4 hPa | 0 mm | - | - | - |
| 1777986603 | 10° C | 32% | 1009.6 hPa | 0 mm | - | - | - |
| 1777986004 | 8.89° C | 29% | 1009.7 hPa | 0 mm | - | - | - |
| 1777985403 | 9.44° C | 32% | 1009.6 hPa | 0 mm | - | - | - |
| 1777984803 | 8.89° C | 31% | 1009.4 hPa | 0 mm | - | - | - |
| 1777984203 | 8.33° C | 31% | 1009.4 hPa | 0 mm | - | - | - |
| 1777983603 | 8.89° C | 29% | 1009.2 hPa | 0 mm | - | - | - |
| 1777983003 | 10° C | 32% | 1009.4 hPa | 0 mm | - | - | - |
* Rain latest hour (hover to see other rain measurements)
** Current wind speed in m/s (hover to see current wind gust speed)